Dewpoint
26 25 23 22 19 18 19 16 14 14 14 13 16 21 21 22 17 13 31 38 26 31 36 40 44 46 48 51 55 59 61 62 63 63 62 61 61 63 64 66 67 64 63 64 65 65 65 65 65 67 69 70 70 70 70 70 69 67 67 66 67 67 67 66 67 69 70 70 71 72 71 71 70 69 69 68 69 69 69 69 71 69 70 69 67 67 66
26 26 26 24 22 21 19 18 16 14 16 16 17 20 29 22 23 20 24 40 23 31 36 39 43 47 49 54 59 60 61 62 62 62 61 61 62 64 65 65 64 64 64 65 65 65 66 66 65 68 69 69 69 69 69 69 68 67 67 67 67 67 67 68 69 70 70 70 71 71 71 70 70 69 68 68 68 68 68 68 68 69 69 68 67 66 65
29 30 30 25 26 23 22 26 28 30 38 40 40 40 40 37 24 15 17 29 30 29 38 43 49 54 56 59 59 60 61 62 62 61 62 63 65 65 64 64 65 65 65 65 65 65 66 66 66 68 69 69 69 69 69 67 67 68 67 68 67 67 68 69 70 69 70 70 71 70 70 70 70 70 69 68 68 68 68 68 67 68 68 67 66 66 66
28 30 30 29 27 24 24 26 29 35 39 39 40 40 41 37 37 35 21 28 33 39 50 52 53 54 55 57 58 60 61 61 62 61 63 65 65 64 64 65 65 65 65 65 65 65 65 66 67 69 69 69 69 69 67 67 67 68 68 68 68 68 69 70 70 70 70 70 71 70 70 70 69 69 69 68 68 68 67 67 68 69 67 66 66 66 65
33 31 32 31 27 25 25 25 28 34 41 41 41 41 43 43 43 45 45 46 48 43 53 50 52 52 53 55 57 60 61 61 61 62 64 65 65 65 65 65 65 65 65 65 65 66 65 66 68 69 69 69 69 68 66 66 68 69 69 69 69 69 70 70 70 70 70 71 70 70 69 70 70 69 68 68 68 67 66 67 67 66 66 66 65 65 63
33 32 34 35 30 24 25 30 32 40 43 43 42 42 41 42 45 45 49 52 54 54 53 51 51 53 54 54 57 60 61 61 61 62 64 65 65 65 66 65 65 65 66 67 66 66 65 67 69 69 69 69 69 68 67 67 68 69 69 69 70 70 70 70 70 70 71 70 70 69 69 69 69 68 68 67 68 67 67 66 66 66 67 66 65 63 63
34 35 34 32 29 29 32 36 33 42 45 46 46 46 46 43 43 46 51 53 55 57 58 59 60 61 60 59 59 60 62 62 62 63 64 65 65 65 66 65 65 65 66 67 67 66 66 68 69 69 69 70 69 68 68 67 68 69 70 70 70 70 70 70 70 70 70 70 69 69 68 68 68 67 67 67 67 66 65 64 64 65 66 65 64 65 63
37 36 36 26 30 36 40 36 36 43 41 45 45 46 48 48 45 44 46 50 54 57 59 60 61 61 61 62 63 62 63 63 63 63 64 64 65 65 66 66 66 66 66 67 66 66 68 69 70 69 70 70 68 68 68 67 68 69 70 70 70 70 70 70 70 70 70 70 70 69 68 67 66 66 67 66 65 65 68 67 67 65 62 63 62 62 62
31 33 38 31 40 34 36 38 39 40 33 41 45 45 48 50 49 47 45 47 52 55 57 59 59 60 60 59 60 63 63 64 64 64 64 65 65 66 66 67 66 67 66 67 67 67 67 69 70 69 70 69 68 68 68 68 69 69 70 70 70 70 70 70 70 70 70 70 70 69 68 67 65 65 65 65 66 67 66 65 63 62 61 61 61 60 61
35 31 32 34 30 30 38 41 42 45 40 46 48 48 48 50 51 51 51 51 49 48 53 56 56 56 55 54 56 60 62 63 64 66 66 66 66 67 67 67 66 66 66 66 67 66 67 69 70 71 70 69 68 68 68 68 69 69 70 70 70 71 70 71 70 70 70 70 70 69 68 67 66 66 66 67 66 69 66 63 59 60 60 60 60 61 59
35 36 31 30 29 34 41 42 44 48 49 41 48 48 48 51 52 53 53 53 55 53 51 51 54 49 44 49 54 58 62 63 65 65 66 66 67 67 66 65 66 66 66 66 67 67 68 68 70 71 70 69 68 68 68 69 69 69 70 70 71 71 71 71 71 71 70 70 69 68 68 67 67 66 66 66 68 67 64 61 61 61 61 58 58 58 58
37 36 30 30 38 39 43 43 47 50 52 43 36 37 44 51 54 54 54 54 55 55 56 57 54 50 44 48 48 57 61 64 66 65 65 66 67 66 66 66 66 66 67 67 67 68 68 69 71 71 70 70 69 68 68 69 69 69 70 71 71 71 71 71 70 70 69 70 69 68 67 67 67 66 67 63 62 62 62 60 59 58 59 56 54 56 58
38 38 34 33 40 48 48 45 50 51 53 49 41 40 47 52 56 57 56 56 56 57 56 56 52 54 53 53 54 61 63 64 65 65 66 66 67 66 66 66 68 67 67 67 67 68 69 70 71 71 71 70 70 70 69 69 70 70 70 71 72 71 71 70 70 70 70 69 69 68 67 66 67 66 63 62 61 60 59 58 57 56 55 57 58 58 58
33 35 31 34 41 45 46 48 51 53 46 46 45 49 53 56 58 59 57 56 56 57 56 57 57 57 57 61 60 62 63 63 64 64 65 65 66 66 67 68 68 67 67 68 68 69 70 71 71 71 70 70 71 70 69 69 70 70 72 72 72 70 69 69 69 70 69 68 69 69 67 65 63 62 62 61 60 59 58 57 56 55 56 58 54 53 55
40 40 38 36 31 45 49 51 52 54 49 50 54 56 59 60 60 60 60 58 58 58 57 58 59 57 57 58 59 60 60 61 62 64 65 65 65 65 67 69 70 68 68 68 68 69 70 71 71 71 70 71 71 70 69 69 71 72 72 71 71 70 69 70 70 70 69 69 69 68 66 64 62 60 60 59 59 59 57 57 57 54 53 53 51 50 50
39 40 38 38 44 48 50 52 49 52 54 55 57 58 58 60 61 61 60 59 62 62 60 59 58 59 59 59 58 58 58 59 61 63 65 64 65 68 68 69 69 69 68 68 68 69 70 71 71 71 70 71 71 70 69 71 72 72 71 70 70 69 70 69 69 69 68 68 66 66 65 63 62 61 58 58 59 62 59 55 51 50 50 49 49 48 46
44 40 42 45 49 51 51 52 54 56 58 59 60 59 59 58 59 62 60 60 62 62 62 61 60 58 60 59 58 57 57 58 59 61 63 64 67 68 68 68 69 68 67 67 68 69 70 71 71 71 71 71 71 70 71 71 70 70 70 69 69 69 69 69 68 68 66 64 63 63 62 61 60 60 58 54 50 51 51 49 48 47 49 50 47 48 44
50 50 51 52 52 53 55 56 56 56 56 57 59 59 58 58 59 62 61 62 62 62 63 60 60 60 60 62 62 61 60 59 59 61 63 67 68 68 67 68 68 68 68 68 68 69 70 70 70 71 71 71 71 70 70 70 69 69 69 69 69 68 68 68 67 66 63 63 63 63 62 62 60 54 49 49 47 47 47 48 48 48 49 47 47 45 43
44 41 50 54 54 55 54 54 54 53 55 56 57 59 60 60 62 61 62 62 62 63 63 63 61 61 61 61 61 62 62 62 63 65 66 67 67 67 67 67 68 68 68 68 68 69 70 70 71 71 71 71 70 69 69 69 69 69 68 68 68 68 67 67 65 64 62 62 59 53 51 50 48 51 50 49 49 51 47 44 46 47 46 47 47 47 43
45 47 52 54 55 55 54 54 52 52 52 53 54 57 59 60 63 63 63 64 64 65 62 64 63 62 61 61 60 62 63 64 64 64 64 65 65 65 66 67 68 68 68 68 69 69 70 70 70 70 70 70 69 69 69 69 69 68 68 67 67 66 65 64 64 63 62 64 52 47 47 45 45 47 49 46 41 43 41 40 41 42 46 47 48 45 42
50 53 54 55 56 54 54 53 53 52 52 54 53 52 54 59 62 62 63 63 61 63 62 65 65 62 61 62 62 62 62 63 64 64 65 64 64 65 65 65 67 67 67 69 70 69 69 69 69 69 69 69 69 69 69 69 69 68 67 68 66 64 62 61 63 63 58 51 47 47 48 50 50 46 46 43 43 43 41 43 40 40 42 47 46 42 43
49 49 51 54 48 48 54 53 52 51 52 53 51 52 54 55 60 64 62 62 63 63 63 64 64 63 62 62 63 63 63 63 63 64 65 65 65 66 67 66 66 67 69 69 69 69 68 69 69 69 69 69 69 69 69 68 68 67 67 65 62 57 54 53 55 53 50 45 46 49 49 49 50 52 57 56 49 45 53 57 55 53 51 49 48 47 45
49 53 54 56 54 54 55 52 51 52 52 51 53 55 58 58 59 63 63 63 63 63 64 65 64 63 63 63 64 63 65 64 65 65 65 65 65 66 66 66 65 65 67 69 69 68 68 68 68 68 68 68 68 67 67 67 66 65 60 58 55 51 52 52 53 52 49 46 46 46 45 46 49 51 49 52 47 49 57 53 47 43 44 47 50 54 54
53 53 53 54 52 49 51 52 51 50 53 56 55 57 56 56 55 57 57 58 61 62 64 65 65 64 63 64 65 65 65 65 65 65 66 66 66 66 67 66 66 66 66 68 68 68 68 67 65 65 65 65 63 62 62 62 60 56 55 55 53 52 54 56 57 56 49 51 51 49 49 49 49 51 49 47 47 46 46 49 47 44 43 42 43 44 47
51 53 55 53 52 52 53 52 52 52 56 55 55 55 55 56 55 57 56 55 57 62 64 64 65 66 64 64 65 65 66 67 66 66 65 66 67 67 67 66 66 66 66 67 68 68 66 64 63 63 62 61 59 56 56 56 55 54 55 55 53 54 55 56 57 58 55 55 57 56 57 57 57 53 49 50 46 46 49 46 46 44 43 43 43 42 43
54 55 54 54 54 54 56 52 51 52 50 52 52 53 56 60 59 57 53 53 55 57 62 65 65 66 66 65 65 65 65 66 66 66 65 66 66 67 67 67 67 67 67 67 67 65 63 62 61 60 58 58 57 56 55 55 55 55 55 55 55 55 55 54 54 54 55 55 55 55 55 55 56 54 55 54 52 52 51 52 54 52 50 47 45 43 43
54 53 50 50 50 52 53 50 49 51 52 52 52 53 54 55 57 55 53 53 55 57 63 65 65 66 66 66 65 65 64 65 66 66 66 66 67 67 67 68 68 68 67 66 66 65 64 63 61 59 59 58 57 57 56 56 55 55 55 56 58 61 61 59 54 55 55 54 54 56 58 58 58 59 59 60 60 57 54 53 53 52 49 51 52 46 48
52 52 49 47 47 49 50 52 53 54 54 53 53 53 53 53 52 51 51 54 63 64 64 64 65 66 66 65 64 64 65 65 65 66 66 67 67 67 68 68 68 67 66 65 65 65 64 61 60 59 58 58 57 56 55 54 54 56 57 58 58 58 59 59 55 54 53 53 54 54 54 54 60 59 61 58 57 56 56 56 54 51 52 51 51 54 50
52 53 54 51 50 51 53 54 54 53 53 53 54 53 52 52 51 52 53 63 64 64 64 64 65 65 65 66 65 65 65 65 65 66 66 67 67 67 68 67 67 67 66 65 64 63 62 61 59 57 57 57 56 55 54 54 54 55 55 53 53 52 52 52 52 52 52 53 53 55 63 65 60 57 59 58 59 56 56 54 53 52 49 49 50 50 52
54 55 55 55 57 57 55 55 54 54 55 55 54 54 54 54 53 55 56 64 63 63 63 64 64 65 65 65 66 66 65 65 66 66 67 67 68 67 67 67 66 66 66 64 63 61 61 60 58 57 56 55 55 54 52 53 53 53 52 52 51 50 51 53 53 53 52 52 54 62 61 60 61 56 56 55 55 56 56 54 54 53 50 50 56 48 48
55 56 57 57 58 58 57 56 56 57 57 57 57 56 56 58 59 61 63 62 62 63 63 63 63 64 64 65 65 67 66 66 66 66 66 66 67 67 67 66 65 64 63 62 61 61 61 60 58 56 56 54 54 54 53 52 52 53 53 53 54 58 59 59 58 53 54 56 60 59 58 57 56 56 56 53 53 52 52 54 53 52 53 50 48 50 49
56 57 58 57 57 58 58 57 58 59 59 59 58 57 57 57 58 62 64 63 63 63 63 64 63 64 64 65 65 66 65 65 65 65 65 66 66 66 66 66 65 65 63 62 62 62 61 59 57 57 57 55 55 55 54 54 53 52 51 57 53 56 59 61 60 60 60 61 60 55 56 53 54 56 57 54 52 51 49 49 49 50 50 51 48 48 50
55 54 54 55 57 57 57 58 58 59 59 60 60 59 58 58 61 64 64 63 63 62 62 62 63 64 65 65 65 65 65 65 64 65 65 65 66 66 65 65 65 64 62 62 62 62 62 59 58 59 57 56 55 53 51 51 51 51 52 53 52 55 60 59 59 61 61 59 55 53 54 55 54 56 56 55 54 55 51 51 51 52 52 51 46 47 49
56 56 56 57 57 57 58 59 59 59 60 61 60 60 59 59 61 64 64 63 62 62 62 63 64 64 65 65 65 65 65 64 64 64 64 65 66 66 66 66 64 63 63 62 62 61 61 60 60 59 58 56 53 51 49 49 50 51 51 51 51 54 56 58 60 59 58 58 56 56 54 54 51 51 56 55 52 53 55 52 54 52 51 51 48 52 51
59 59 59 60 60 61 61 61 61 61 61 61 61 60 60 59 62 63 64 63 63 62 63 64 64 65 65 65 65 65 64 64 64 64 65 66 65 65 64 64 64 63 62 62 62 61 61 61 61 61 60 55 52 49 48 47 48 50 51 52 56 54 57 58 57 57 56 55 55 49 50 49 51 61 57 53 52 53 52 53 54 53 53 52 53 54 54
60 60 60 60 60 62 62 62 63 63 63 62 62 61 61 59 62 63 64 64 63 62 62 64 64 65 65 64 65 65 64 65 65 65 65 65 65 65 64 64 63 62 62 62 62 61 61 61 67 67 59 53 52 49 48 47 48 50 54 55 57 58 61 59 59 58 58 54 51 52 52 56 57 55 55 52 51 50 49 50 52 52 52 52 54 53 53
61 61 60 60 60 61 62 62 63 63 63 63 63 62 62 61 60 61 63 63 63 63 62 63 64 63 64 65 65 66 66 66 66 65 65 65 65 65 64 64 63 62 62 61 61 62 62 62 67 67 63 56 52 48 52 58 51 52 57 56 57 59 58 56 56 53 54 54 53 52 54 56 54 53 54 45 46 47 49 50 53 52 52 54 54 53 54
60 60 60 60 60 61 62 63 64 64 64 64 64 64 63 62 62 61 62 63 64 63 62 63 64 64 64 63 65 66 66 66 66 65 65 65 65 64 64 64 63 62 61 60 62 62 61 64 68 67 58 55 51 48 53 62 60 55 55 56 58 58 55 52 53 53 54 54 60 53 54 51 50 51 49 46 47 50 50 51 52 52 52 52 53 53 54
60 60 60 61 62 62 62 63 64 64 64 63 63 63 64 64 63 62 62 63 64 64 63 63 64 64 64 64 65 65 65 65 65 65 65 65 65 64 64 64 63 62 61 62 62 61 63 65 66 60 56 54 52 49 57 64 65 55 56 57 56 55 53 54 51 52 52 56 53 53 53 51 52 50 48 47 48 53 54 53 53 53 52 52 52 52 52
59 59 61 62 62 62 62 63 63 63 63 64 63 63 64 65 65 64 64 64 65 65 64 64 64 64 64 64 65 65 65 65 65 65 65 65 64 64 64 64 64 63 64 67 62 62 65 69 61 56 55 54 52 53 60 65 64 60 59 56 55 54 52 53 50 50 53 52 51 56 51 52 51 52 51 51 50 51 52 53 52 52 52 52 51 52 53
59 60 60 60 61 61 62 63 63 63 63 63 64 65 65 65 65 64 64 64 65 66 65 64 64 65 65 65 65 65 65 66 65 65 64 64 63 63 63 62 64 63 64 63 62 63 67 63 56 54 55 56 56 61 60 67 60 58 58 56 53 51 51 51 51 51 52 53 56 45 46 50 51 50 50 47 48 49 50 51 51 52 51 51 51 52 53
59 59 60 60 61 62 62 63 64 64 64 63 64 64 64 64 64 64 64 65 66 66 66 65 66 65 65 65 65 65 65 65 65 64 64 63 62 62 62 63 64 63 65 65 65 65 64 58 58 58 55 56 59 66 66 63 57 59 60 57 52 55 52 53 53 51 54 54 48 46 51 48 45 46 48 49 48 50 50 51 51 52 51 51 51 51 51
59 59 60 60 61 62 62 63 64 64 64 64 63 63 64 64 64 64 64 64 65 66 67 66 66 65 65 65 65 65 65 65 65 64 63 63 63 62 62 63 64 63 65 63 63 62 58 56 56 56 60 58 59 68 67 57 57 58 58 55 56 53 53 53 51 52 50 48 48 49 48 47 45 44 45 45 48 49 50 50 51 52 52 51 51 51 51
60 60 61 61 62 62 63 63 63 63 63 63 63 64 65 65 65 65 65 65 65 66 67 66 65 65 65 66 65 65 65 65 64 63 62 62 63 64 64 64 62 64 66 62 61 59 57 57 55 58 65 65 67 67 59 56 57 58 55 53 51 49 50 51 50 47 47 51 50 47 46 49 43 42 43 45 47 48 50 51 51 51 51 51 51 51 50
59 59 60 61 61 61 62 62 61 62 63 64 64 64 64 64 64 65 65 65 65 66 67 66 65 65 65 66 65 65 65 65 65 63 62 61 62 63 64 66 63 64 64 64 60 59 57 56 57 64 66 65 68 67 56 57 58 57 51 49 48 50 51 48 48 50 50 48 47 46 47 43 43 43 43 46 50 49 49 50 51 51 52 51 51 50 50
59 59 59 64 61 61 61 62 63 63 63 63 63 64 65 64 64 64 65 64 63 63 64 65 65 65 66 66 65 65 65 65 65 64 62 62 62 63 64 64 62 64 65 65 60 58 56 60 62 65 65 66 68 61 56 61 61 58 51 50 51 53 50 50 52 51 51 50 48 45 44 43 43 43 45 46 47 47 49 54 52 51 51 50 50 50 50
59 60 60 60 61 62 62 62 63 64 64 62 62 63 64 64 64 64 63 64 65 64 64 65 66 65 66 66 65 65 64 64 64 65 66 65 66 65 65 66 65 65 65 60 60 57 57 60 64 64 63 66 68 56 58 59 59 54 51 50 49 47 48 49 50 50 48 45 48 50 51 48 41 42 48 49 49 50 51 50 48 50 51 52 53 54 54
59 59 59 60 61 62 61 62 62 62 62 62 63 64 65 64 64 63 64 64 64 64 64 65 65 64 64 65 65 65 64 63 62 64 66 65 65 63 62 61 61 64 63 65 63 64 61 62 63 63 63 67 64 57 60 59 55 51 49 48 47 47 45 43 43 43 45 48 48 46 46 44 44 45 46 45 47 48 48 48 50 51 51 51 51 51 51
58 59 60 62 62 62 62 62 61 62 62 63 64 64 65 64 64 64 64 65 64 64 64 64 64 64 65 66 66 65 66 67 65 65 66 64 63 62 61 63 64 64 62 60 60 59 62 61 62 62 64 68 58 59 60 58 53 51 48 47 47 44 41 40 41 43 45 46 45 45 44 44 42 41 43 45 47 48 50 49 49 50 51 51 51 51 51
60 61 61 62 62 62 61 61 61 61 61 63 62 64 65 64 63 64 65 65 64 65 64 64 65 64 65 65 66 66 66 66 67 66 65 63 62 61 61 61 61 64 64 60 59 59 66 62 62 64 65 60 58 59 60 57 52 50 49 52 48 44 46 46 51 52 50 53 49 48 46 43 40 42 47 45 46 48 48 48 48 53 56 55 51 51 51
57 60 61 62 62 62 62 62 62 63 63 63 63 64 64 64 63 64 64 64 64 64 63 64 64 64 65 65 66 66 66 67 67 66 64 63 62 63 63 61 60 62 62 60 59 59 60 60 60 63 61 59 57 58 59 57 53 53 53 49 48 46 47 48 49 49 49 49 48 47 45 44 44 44 42 43 46 47 48 49 51 52 52 51 51 51 52
57 59 60 60 60 61 61 62 63 63 63 63 63 64 63 64 64 64 65 65 64 63 63 63 63 64 65 65 65 65 65 66 66 65 65 63 63 62 62 64 61 62 61 59 58 59 59 59 62 65 61 57 57 58 64 62 54 53 52 53 51 48 50 52 51 48 49 49 46 46 47 43 41 41 42 43 45 46 48 49 51 51 51 51 51 51 51